| time (UTC) | temp F | wind direction | speed MPH | gust MPH | rain 1hr in | rain 24hr in | rain mn in | humidity % | barometer mb |
| 20260506165222 | 67 | 241 | 0.0 | 0.0 | 0.00 | 0.00 | 0.00 | 71 | 1005.2 |
| 20260506164720 | 67 | 224 | 0.0 | 0.0 | 0.00 | 0.00 | 0.00 | 72 | 1005.2 |
| 20260506164217 | 66 | 324 | 0.0 | 0.0 | 0.00 | 0.00 | 0.00 | 72 | 1005.2 |
| 20260506163713 | 66 | 254 | 0.0 | 0.0 | 0.00 | 0.00 | 0.00 | 72 | 1005.7 |
| 20260506163208 | 66 | 130 | 0.0 | 0.0 | 0.00 | 0.00 | 0.00 | 73 | 1005.7 |
| 20260506162705 | 66 | 236 | 0.0 | 0.0 | 0.00 | 0.00 | 0.00 | 73 | 1006.0 |
| 20260506162202 | 66 | 343 | 0.0 | 3.0 | 0.00 | 0.00 | 0.00 | 72 | 1006.0 |
| 20260506161659 | 66 | 333 | 0.0 | 0.0 | 0.00 | 0.00 | 0.00 | 75 | 1006.0 |
| 20260506161156 | 67 | 252 | 0.0 | 0.0 | 0.00 | 0.00 | 0.00 | 75 | 1006.4 |
| 20260506160654 | 68 | 235 | 0.0 | 0.0 | 0.00 | 0.00 | 0.00 | 75 | 1006.4 |
| 20260506160150 | 69 | 241 | 0.0 | 0.0 | 0.00 | 0.00 | 0.00 | 75 | 1006.7 |
| 20260506155649 | 71 | 258 | 0.0 | 0.0 | 0.00 | 0.00 | 0.00 | 75 | 1006.7 |
| 20260506155146 | 72 | 245 | 0.0 | 0.0 | 0.00 | 0.00 | 0.00 | 74 | 1006.4 |
| 20260506153248 | 76 | 231 | 0.0 | 0.0 | 0.00 | 0.00 | 0.00 | 73 | 1005.2 |
| 20260506152744 | 77 | 272 | 0.0 | 0.0 | 0.00 | 0.00 | 0.00 | 72 | 1004.9 |
| 20260506152242 | 77 | 228 | 0.0 | 0.0 | 0.00 | 0.00 | 0.00 | 72 | 1004.9 |
| 20260506151741 | 77 | 225 | 0.0 | 0.0 | 0.00 | 0.00 | 0.00 | 72 | 1004.6 |
| 20260506151237 | 77 | 201 | 0.0 | 0.0 | 0.00 | 0.00 | 0.00 | 72 | 1004.6 |
| 20260506150733 | 77 | 223 | 0.0 | 0.0 | 0.00 | 0.00 | 0.00 | 71 | 1004.6 |
| 20260506150231 | 76 | 222 | 0.0 | 0.0 | 0.00 | 0.00 | 0.00 | 72 | 1004.2 |
| 20260506145728 | 76 | 224 | 0.0 | 0.0 | 0.00 | 0.00 | 0.00 | 72 | 1004.6 |
| 20260506145224 | 76 | 209 | 0.0 | 0.0 | 0.00 | 0.00 | 0.00 | 71 | 1004.2 |
| 20260506144722 | 76 | 204 | 0.0 | 0.0 | 0.00 | 0.00 | 0.00 | 71 | 1003.9 |
| 20260506144219 | 76 | 189 | 0.0 | 0.0 | 0.00 | 0.00 | 0.00 | 71 | 1003.9 |
| 20260506143716 | 75 | 235 | 0.0 | 0.0 | 0.00 | 0.00 | 0.00 | 71 | 1003.9 |
| 20260506143214 | 75 | 246 | 0.0 | 3.0 | 0.00 | 0.00 | 0.00 | 71 | 1003.9 |
| 20260506142712 | 75 | 221 | 0.0 | 0.0 | 0.00 | 0.00 | 0.00 | 72 | 1003.9 |
| 20260506142210 | 75 | 229 | 0.0 | 0.0 | 0.00 | 0.00 | 0.00 | 72 | 1003.5 |
| 20260506141707 | 74 | 216 | 0.0 | 0.0 | 0.00 | 0.00 | 0.00 | 73 | 1003.2 |
| 20260506141205 | 74 | 222 | 0.0 | 0.0 | 0.00 | 0.00 | 0.00 | 74 | 1003.2 |
| 20260506140703 | 74 | 213 | 0.0 | 0.0 | 0.00 | 0.00 | 0.00 | 74 | 1003.5 |
| 20260506140159 | 74 | 197 | 0.0 | 0.0 | 0.00 | 0.00 | 0.00 | 74 | 1003.5 |
| 20260506135656 | 74 | 228 | 0.0 | 0.0 | 0.00 | 0.00 | 0.00 | 74 | 1003.9 |
| 20260506135153 | 74 | 225 | 0.0 | 0.0 | 0.00 | 0.00 | 0.00 | 74 | 1003.9 |
| 20260506134649 | 74 | 224 | 0.0 | 0.0 | 0.00 | 0.00 | 0.00 | 74 | 1003.5 |
| 20260506134145 | 74 | 224 | 0.0 | 0.0 | 0.00 | 0.00 | 0.00 | 74 | 1003.2 |
| 20260506133643 | 74 | 239 | 0.0 | 0.0 | 0.00 | 0.00 | 0.00 | 74 | 1002.9 |
| 20260506133139 | 74 | 228 | 0.0 | 0.0 | 0.00 | 0.00 | 0.00 | 74 | 1003.2 |
| 20260506132637 | 74 | 231 | 0.0 | 0.0 | 0.00 | 0.00 | 0.00 | 74 | 1002.9 |
| 20260506132133 | 74 | 229 | 0.0 | 0.0 | 0.00 | 0.00 | 0.00 | 74 | 1002.9 |
| 20260506131631 | 74 | 232 | 0.0 | 0.0 | 0.00 | 0.00 | 0.00 | 74 | 1002.9 |
| 20260506131127 | 74 | 197 | 0.0 | 0.0 | 0.00 | 0.00 | 0.00 | 74 | 1002.9 |
| 20260506130624 | 74 | 238 | 0.0 | 0.0 | 0.00 | 0.00 | 0.00 | 74 | 1002.5 |
| 20260506130122 | 73 | 218 | 0.0 | 0.0 | 0.00 | 0.00 | 0.00 | 74 | 1002.9 |
| 20260506125620 | 73 | 217 | 0.0 | 0.0 | 0.00 | 0.00 | 0.00 | 75 | 1002.5 |
| 20260506125117 | 73 | 240 | 0.0 | 0.0 | 0.00 | 0.00 | 0.00 | 75 | 1002.5 |
| 20260506124615 | 73 | 221 | 0.0 | 0.0 | 0.00 | 0.00 | 0.00 | 75 | 1002.5 |
| 20260506124113 | 73 | 187 | 0.0 | 0.0 | 0.00 | 0.00 | 0.00 | 75 | 1002.5 |
| 20260506123610 | 73 | 218 | 0.0 | 0.0 | 0.00 | 0.00 | 0.00 | 75 | 1002.9 |
| 20260506123108 | 73 | 218 | 0.0 | 0.0 | 0.00 | 0.00 | 0.00 | 75 | 1002.9 |
| 20260506122604 | 73 | 222 | 0.0 | 0.0 | 0.00 | 0.00 | 0.00 | 75 | 1002.5 |
| 20260506122103 | 73 | 216 | 0.0 | 0.0 | 0.00 | 0.00 | 0.00 | 75 | 1002.5 |
| 20260506121600 | 73 | 219 | 0.0 | 0.0 | 0.00 | 0.00 | 0.00 | 75 | 1002.5 |
| 20260506121056 | 73 | 217 | 0.0 | 0.0 | 0.00 | 0.00 | 0.00 | 75 | 1002.5 |
| 20260506120554 | 74 | 218 | 0.0 | 0.0 | 0.00 | 0.00 | 0.00 | 75 | 1002.5 |
| 20260506120051 | 74 | 218 | 0.0 | 0.0 | 0.00 | 0.00 | 0.00 | 74 | 1002.5 |
| 20260506115549 | 74 | 218 | 0.0 | 0.0 | 0.00 | 0.00 | 0.00 | 74 | 1002.5 |
| 20260506115048 | 74 | 218 | 0.0 | 0.0 | 0.00 | 0.00 | 0.00 | 74 | 1002.1 |
| 20260506114544 | 74 | 217 | 0.0 | 0.0 | 0.00 | 0.00 | 0.00 | 74 | 1002.5 |
| 20260506114043 | 74 | 230 | 0.0 | 0.0 | 0.00 | 0.00 | 0.00 | 74 | 1002.1 |
| 20260506113540 | 74 | 221 | 0.0 | 0.0 | 0.00 | 0.00 | 0.00 | 74 | 1002.1 |
| 20260506113037 | 74 | 221 | 0.0 | 0.0 | 0.00 | 0.00 | 0.00 | 74 | 1002.1 |
| 20260506112534 | 74 | 221 | 0.0 | 0.0 | 0.00 | 0.00 | 0.00 | 74 | 1002.5 |
| 20260506112031 | 74 | 221 | 0.0 | 0.0 | 0.00 | 0.00 | 0.00 | 74 | 1002.1 |
| 20260506111529 | 74 | 221 | 0.0 | 0.0 | 0.00 | 0.00 | 0.00 | 74 | 1002.5 |
| 20260506111026 | 74 | 221 | 0.0 | 0.0 | 0.00 | 0.00 | 0.00 | 74 | 1002.5 |
| 20260506110524 | 74 | 221 | 0.0 | 0.0 | 0.00 | 0.00 | 0.00 | 74 | 1002.1 |
| 20260506110021 | 74 | 216 | 0.0 | 0.0 | 0.00 | 0.00 | 0.00 | 74 | 1002.1 |
| 20260506105517 | 74 | 216 | 0.0 | 0.0 | 0.00 | 0.00 | 0.00 | 74 | 1002.1 |
| 20260506105014 | 74 | 216 | 0.0 | 0.0 | 0.00 | 0.00 | 0.00 | 74 | 1002.1 |
| 20260506104512 | 74 | 208 | 0.0 | 0.0 | 0.00 | 0.00 | 0.00 | 74 | 1002.1 |
| 20260506104010 | 74 | 200 | 0.0 | 0.0 | 0.00 | 0.00 | 0.00 | 74 | 1001.8 |
| 20260506103507 | 74 | 215 | 0.0 | 0.0 | 0.00 | 0.00 | 0.00 | 74 | 1002.1 |
| 20260506103003 | 74 | 224 | 0.0 | 0.0 | 0.00 | 0.00 | 0.00 | 74 | 1001.8 |
| 20260506102502 | 74 | 228 | 0.0 | 0.0 | 0.00 | 0.00 | 0.00 | 74 | 1001.8 |
| 20260506101959 | 74 | 217 | 0.0 | 0.0 | 0.00 | 0.00 | 0.00 | 74 | 1001.8 |
| 20260506101455 | 74 | 227 | 0.0 | 0.0 | 0.00 | 0.00 | 0.00 | 74 | 1001.8 |
| 20260506100953 | 73 | 212 | 0.0 | 0.0 | 0.00 | 0.00 | 0.00 | 74 | 1001.8 |
| 20260506100451 | 73 | 178 | 0.0 | 0.0 | 0.00 | 0.00 | 0.00 | 74 | 1001.8 |
| 20260506095949 | 73 | 204 | 0.0 | 3.0 | 0.00 | 0.00 | 0.00 | 74 | 1001.4 |
| 20260506095447 | 73 | 169 | 0.0 | 0.0 | 0.00 | 0.00 | 0.00 | 74 | 1001.4 |
| 20260506094942 | 73 | 197 | 0.0 | 0.0 | 0.00 | 0.00 | 0.00 | 74 | 1001.4 |
| 20260506094441 | 73 | 266 | 0.0 | 0.0 | 0.00 | 0.00 | 0.00 | 74 | 1001.4 |
| 20260506093938 | 73 | 220 | 0.0 | 0.0 | 0.00 | 0.00 | 0.00 | 75 | 1001.4 |
| 20260506093437 | 74 | 215 | 0.0 | 0.0 | 0.00 | 0.00 | 0.00 | 75 | 1001.4 |
| 20260506092934 | 74 | 147 | 1.0 | 3.0 | 0.00 | 0.00 | 0.00 | 75 | 1001.4 |
| 20260506092432 | 74 | 216 | 0.0 | 0.0 | 0.00 | 0.00 | 0.00 | 75 | 1001.1 |
| 20260506091928 | 74 | 170 | 0.0 | 3.0 | 0.00 | 0.00 | 0.00 | 75 | 1001.1 |
| 20260506091426 | 74 | 218 | 0.0 | 0.0 | 0.00 | 0.00 | 0.00 | 75 | 1001.1 |
| 20260506090923 | 74 | 232 | 0.0 | 0.0 | 0.00 | 0.00 | 0.00 | 75 | 1001.1 |
| 20260506090421 | 74 | 214 | 0.0 | 0.0 | 0.00 | 0.00 | 0.00 | 75 | 1001.1 |
| 20260506085917 | 74 | 205 | 0.0 | 3.0 | 0.00 | 0.00 | 0.00 | 75 | 1000.7 |
| 20260506085414 | 74 | 217 | 0.0 | 0.0 | 0.00 | 0.00 | 0.00 | 75 | 1000.7 |
| 20260506084910 | 74 | 239 | 0.0 | 0.0 | 0.00 | 0.00 | 0.00 | 75 | 1000.7 |
| 20260506084407 | 74 | 194 | 0.0 | 0.0 | 0.00 | 0.00 | 0.00 | 75 | 1001.1 |
| 20260506083903 | 74 | 232 | 0.0 | 0.0 | 0.00 | 0.00 | 0.00 | 75 | 1000.7 |
| 20260506083401 | 74 | 180 | 1.0 | 3.0 | 0.00 | 0.00 | 0.00 | 75 | 1001.1 |
| 20260506082858 | 74 | 143 | 3.0 | 5.0 | 0.00 | 0.00 | 0.00 | 75 | 1000.7 |
| 20260506082355 | 74 | 196 | 0.0 | 0.0 | 0.00 | 0.00 | 0.00 | 75 | 1001.1 |
| 20260506081851 | 74 | 161 | 3.0 | 5.0 | 0.00 | 0.00 | 0.00 | 75 | 1001.1 |
| 20260506081349 | 74 | 186 | 0.0 | 0.0 | 0.00 | 0.00 | 0.00 | 75 | 1001.1 |
| 20260506080846 | 74 | 245 | 0.0 | 0.0 | 0.00 | 0.00 | 0.00 | 75 | 1001.1 |
| 20260506080343 | 74 | 240 | 0.0 | 0.0 | 0.00 | 0.00 | 0.00 | 75 | 1001.1 |
| 20260506073327 | 75 | 153 | 1.0 | 5.0 | 0.00 | 0.00 | 0.00 | 75 | 1001.4 |
| 20260506072824 | 75 | 182 | 1.0 | 3.0 | 0.00 | 0.00 | 0.00 | 74 | 1001.4 |
| 20260506072321 | 75 | 221 | 0.0 | 0.0 | 0.00 | 0.00 | 0.00 | 74 | 1001.8 |
| 20260506071819 | 75 | 228 | 0.0 | 3.0 | 0.00 | 0.00 | 0.00 | 74 | 1001.4 |
| 20260506071317 | 75 | 211 | 0.0 | 0.0 | 0.00 | 0.00 | 0.00 | 74 | 1001.8 |
| 20260506070814 | 75 | 218 | 0.0 | 3.0 | 0.00 | 0.00 | 0.00 | 74 | 1001.8 |
| 20260506070311 | 75 | 124 | 0.0 | 3.0 | 0.00 | 0.00 | 0.00 | 74 | 1001.8 |
| 20260506062248 | 75 | 212 | 5.0 | 10.0 | 0.00 | 0.00 | 0.00 | 75 | 1001.4 |
| 20260506061744 | 75 | 229 | 0.0 | 0.0 | 0.00 | 0.00 | 0.00 | 75 | 1001.8 |
| 20260506061241 | 75 | 162 | 0.0 | 0.0 | 0.00 | 0.00 | 0.00 | 75 | 1001.8 |
| 20260506060739 | 75 | 200 | 0.0 | 0.0 | 0.00 | 0.00 | 0.00 | 75 | 1001.4 |
| 20260506060237 | 75 | 217 | 0.0 | 0.0 | 0.00 | 0.00 | 0.00 | 75 | 1001.8 |
| 20260506051208 | 75 | 251 | 0.0 | 0.0 | 0.00 | 0.00 | 0.00 | 74 | 1001.4 |
| 20260506050707 | 75 | 220 | 0.0 | 0.0 | 0.00 | 0.00 | 0.00 | 74 | 1001.8 |
| 20260506050203 | 75 | 165 | 2.0 | 5.0 | 0.00 | 0.00 | 0.00 | 74 | 1001.4 |
| 20260506044654 | 75 | 179 | 0.0 | 0.0 | 0.00 | 0.00 | 0.00 | 75 | 1001.8 |
| 20260506044151 | 75 | 191 | 0.0 | 0.0 | 0.00 | 0.00 | 0.00 | 75 | 1001.8 |
| 20260506043648 | 75 | 206 | 0.0 | 0.0 | 0.00 | 0.00 | 0.00 | 75 | 1001.8 |
| 20260506043146 | 75 | 234 | 0.0 | 0.0 | 0.00 | 0.00 | 0.00 | 75 | 1001.8 |
| 20260506042645 | 75 | 212 | 1.0 | 5.0 | 0.00 | 0.00 | 0.00 | 75 | 1001.8 |
| 20260506042143 | 75 | 194 | 0.0 | 0.0 | 0.00 | 0.00 | 0.00 | 75 | 1001.4 |
| 20260506041641 | 75 | 189 | 2.0 | 3.0 | 0.00 | 0.00 | 0.00 | 75 | 1001.4 |
| 20260506041137 | 75 | 209 | 1.0 | 5.0 | 0.00 | 0.00 | 0.00 | 75 | 1001.4 |
| 20260506040635 | 75 | 207 | 0.0 | 0.0 | 0.00 | 0.00 | 0.00 | 75 | 1001.4 |
| 20260506040132 | 75 | 220 | 0.0 | 0.0 | 0.00 | 0.00 | 0.00 | 75 | 1001.4 |
| 20260506035629 | 75 | 226 | 0.0 | 0.0 | 0.00 | 0.00 | 0.00 | 75 | 1001.4 |
| 20260506035125 | 75 | 204 | 0.0 | 0.0 | 0.00 | 0.00 | 0.00 | 75 | 1001.1 |
| 20260506034623 | 76 | 219 | 0.0 | 0.0 | 0.00 | 0.00 | 0.00 | 76 | 1001.1 |
| 20260506034120 | 76 | 197 | 1.0 | 3.0 | 0.00 | 0.00 | 0.00 | 76 | 1001.1 |
| 20260506033617 | 76 | 214 | 0.0 | 0.0 | 0.00 | 0.00 | 0.00 | 76 | 1001.1 |
| 20260506033114 | 76 | 187 | 0.0 | 0.0 | 0.00 | 0.00 | 0.00 | 76 | 1001.1 |
| 20260506032611 | 76 | 270 | 0.0 | 0.0 | 0.00 | 0.00 | 0.00 | 76 | 1001.1 |
| 20260506032108 | 76 | 188 | 0.0 | 3.0 | 0.00 | 0.00 | 0.00 | 76 | 1001.1 |
| 20260506031605 | 76 | 256 | 0.0 | 0.0 | 0.00 | 0.00 | 0.00 | 77 | 1000.7 |
| 20260506031102 | 76 | 196 | 1.0 | 3.0 | 0.00 | 0.00 | 0.00 | 77 | 1000.7 |
| 20260506030600 | 76 | 208 | 0.0 | 0.0 | 0.00 | 0.00 | 0.00 | 76 | 1000.7 |
| 20260506030057 | 76 | 186 | 0.0 | 0.0 | 0.00 | 0.00 | 0.00 | 77 | 1000.7 |
| 20260506025554 | 77 | 210 | 0.0 | 0.0 | 0.00 | 0.00 | 0.00 | 76 | 1000.7 |
| 20260506025050 | 77 | 168 | 0.0 | 3.0 | 0.00 | 0.00 | 0.00 | 76 | 1000.7 |
| 20260506024547 | 77 | 227 | 0.0 | 0.0 | 0.00 | 0.00 | 0.00 | 76 | 1000.7 |
| 20260506024044 | 77 | 223 | 0.0 | 0.0 | 0.00 | 0.00 | 0.00 | 76 | 1000.7 |
| 20260506023539 | 77 | 197 | 0.0 | 0.0 | 0.00 | 0.00 | 0.00 | 76 | 1000.4 |
| 20260506023037 | 77 | 229 | 0.0 | 0.0 | 0.00 | 0.00 | 0.00 | 76 | 1000.1 |
| 20260506022535 | 77 | 177 | 0.0 | 3.0 | 0.00 | 0.00 | 0.00 | 76 | 1000.1 |
| 20260506022032 | 77 | 218 | 0.0 | 0.0 | 0.00 | 0.00 | 0.00 | 76 | 1000.1 |
| 20260506021529 | 77 | 228 | 0.0 | 0.0 | 0.00 | 0.00 | 0.00 | 76 | 1000.1 |
| 20260506021027 | 77 | 206 | 0.0 | 0.0 | 0.00 | 0.00 | 0.00 | 76 | 1000.1 |
| 20260506020524 | 77 | 219 | 0.0 | 0.0 | 0.00 | 0.00 | 0.00 | 75 | 999.7 |
| 20260506020021 | 78 | 219 | 0.0 | 0.0 | 0.00 | 0.00 | 0.00 | 75 | 999.7 |
| 20260506015519 | 78 | 205 | 0.0 | 0.0 | 0.00 | 0.00 | 0.00 | 75 | 999.7 |
| 20260506015015 | 78 | 215 | 0.0 | 0.0 | 0.00 | 0.00 | 0.00 | 75 | 999.7 |
| 20260506014513 | 78 | 182 | 0.0 | 0.0 | 0.00 | 0.00 | 0.00 | 75 | 999.7 |
| 20260506014009 | 78 | 209 | 0.0 | 0.0 | 0.00 | 0.00 | 0.00 | 75 | 999.4 |
| 20260506013507 | 79 | 227 | 0.0 | 0.0 | 0.00 | 0.00 | 0.00 | 74 | 999.4 |
| 20260506013003 | 79 | 218 | 0.0 | 0.0 | 0.00 | 0.00 | 0.00 | 74 | 999.7 |
| 20260506012459 | 79 | 233 | 0.0 | 0.0 | 0.00 | 0.00 | 0.00 | 73 | 999.4 |
| 20260506011956 | 80 | 217 | 0.0 | 0.0 | 0.00 | 0.00 | 0.00 | 73 | 999.4 |
| 20260506011454 | 80 | 217 | 0.0 | 0.0 | 0.00 | 0.00 | 0.00 | 72 | 999.4 |
| 20260506010950 | 80 | 191 | 0.0 | 0.0 | 0.00 | 0.00 | 0.00 | 72 | 999.7 |
| 20260506010449 | 80 | 218 | 0.0 | 0.0 | 0.00 | 0.00 | 0.00 | 72 | 999.7 |
| 20260506005945 | 81 | 211 | 0.0 | 0.0 | 0.00 | 0.00 | 0.00 | 71 | 999.7 |
| 20260506005443 | 81 | 181 | 0.0 | 0.0 | 0.00 | 0.00 | 0.00 | 71 | 999.7 |
| 20260506004938 | 81 | 184 | 0.0 | 0.0 | 0.00 | 0.00 | 0.00 | 70 | 999.7 |
| 20260506004437 | 81 | 218 | 0.0 | 0.0 | 0.00 | 0.00 | 0.00 | 70 | 999.7 |
| 20260506003932 | 81 | 218 | 0.0 | 0.0 | 0.00 | 0.00 | 0.00 | 69 | 999.7 |
| 20260506003429 | 82 | 225 | 0.0 | 0.0 | 0.00 | 0.00 | 0.00 | 69 | 999.7 |
| 20260506002925 | 82 | 184 | 0.0 | 0.0 | 0.00 | 0.00 | 0.00 | 69 | 1000.1 |
| 20260506002421 | 82 | 211 | 0.0 | 0.0 | 0.00 | 0.00 | 0.00 | 68 | 999.7 |
| 20260506001917 | 82 | 192 | 1.0 | 3.0 | 0.00 | 0.00 | 0.00 | 68 | 999.4 |
| 20260506001414 | 82 | 166 | 0.0 | 3.0 | 0.00 | 0.00 | 0.00 | 67 | 999.7 |
| 20260506000911 | 82 | 204 | 0.0 | 0.0 | 0.00 | 0.00 | 0.00 | 67 | 999.7 |
| 20260506000409 | 82 | 221 | 0.0 | 0.0 | 0.00 | 0.00 | 0.00 | 67 | 999.7 |
| 20260505235905 | 82 | 225 | 0.0 | 0.0 | 0.00 | 0.00 | 0.00 | 67 | 999.4 |
| 20260505235404 | 82 | 229 | 0.0 | 0.0 | 0.00 | 0.00 | 0.00 | 67 | 999.7 |
| 20260505234900 | 82 | 227 | 0.0 | 0.0 | 0.00 | 0.00 | 0.00 | 67 | 999.4 |
| 20260505234358 | 82 | 219 | 0.0 | 0.0 | 0.00 | 0.00 | 0.00 | 67 | 999.4 |
| 20260505233854 | 82 | 220 | 0.0 | 0.0 | 0.00 | 0.00 | 0.00 | 67 | 999.4 |
| 20260505233352 | 82 | 212 | 0.0 | 3.0 | 0.00 | 0.00 | 0.00 | 66 | 998.9 |
| 20260505232849 | 82 | 187 | 0.0 | 0.0 | 0.00 | 0.00 | 0.00 | 66 | 998.9 |
| 20260505232347 | 82 | 311 | 0.0 | 0.0 | 0.00 | 0.00 | 0.00 | 66 | 999.4 |
| 20260505231843 | 82 | 168 | 0.0 | 0.0 | 0.00 | 0.00 | 0.00 | 67 | 999.4 |
| 20260505231341 | 83 | 274 | 0.0 | 0.0 | 0.00 | 0.00 | 0.00 | 66 | 999.4 |
| 20260505230839 | 83 | 209 | 0.0 | 3.0 | 0.00 | 0.00 | 0.00 | 66 | 999.4 |
| 20260505230336 | 83 | 221 | 0.0 | 0.0 | 0.00 | 0.00 | 0.00 | 66 | 999.7 |
| 20260505225832 | 83 | 165 | 0.0 | 0.0 | 0.00 | 0.00 | 0.00 | 66 | 999.4 |
| 20260505225330 | 83 | 166 | 1.0 | 3.0 | 0.00 | 0.00 | 0.00 | 66 | 999.4 |
| 20260505224825 | 83 | 270 | 0.0 | 3.0 | 0.00 | 0.00 | 0.00 | 65 | 999.4 |
| 20260505224323 | 83 | 122 | 2.0 | 5.0 | 0.00 | 0.00 | 0.00 | 65 | 999.4 |
| 20260505223820 | 84 | 224 | 0.0 | 0.0 | 0.00 | 0.00 | 0.00 | 65 | 999.4 |
| 20260505223317 | 84 | 184 | 1.0 | 3.0 | 0.00 | 0.00 | 0.00 | 65 | 999.4 |
| 20260505222813 | 84 | 187 | 0.0 | 0.0 | 0.00 | 0.00 | 0.00 | 65 | 999.4 |
| 20260505222309 | 84 | 215 | 0.0 | 0.0 | 0.00 | 0.00 | 0.00 | 65 | 999.4 |
| 20260505221806 | 84 | 161 | 0.0 | 0.0 | 0.00 | 0.00 | 0.00 | 65 | 999.4 |
| 20260505221303 | 84 | 187 | 3.0 | 5.0 | 0.00 | 0.00 | 0.00 | 64 | 999.4 |
| 20260505220800 | 84 | 215 | 0.0 | 0.0 | 0.00 | 0.00 | 0.00 | 65 | 998.9 |
| 20260505220257 | 85 | 180 | 1.0 | 5.0 | 0.00 | 0.00 | 0.00 | 64 | 998.9 |
| 20260505215755 | 85 | 176 | 4.0 | 7.0 | 0.00 | 0.00 | 0.00 | 64 | 999.4 |
| 20260505215253 | 85 | 211 | 0.0 | 0.0 | 0.00 | 0.00 | 0.00 | 63 | 999.4 |
| 20260505214750 | 85 | 242 | 1.0 | 3.0 | 0.00 | 0.00 | 0.00 | 62 | 999.4 |
| 20260505214247 | 85 | 193 | 1.0 | 3.0 | 0.00 | 0.00 | 0.00 | 62 | 999.4 |
| 20260505213744 | 85 | 216 | 0.0 | 0.0 | 0.00 | 0.00 | 0.00 | 63 | 999.7 |
| 20260505213242 | 85 | 236 | 0.0 | 0.0 | 0.00 | 0.00 | 0.00 | 63 | 999.7 |
| 20260505212737 | 84 | 175 | 1.0 | 3.0 | 0.00 | 0.00 | 0.00 | 62 | 999.7 |
| 20260505212235 | 84 | 157 | 6.0 | 10.0 | 0.00 | 0.00 | 0.00 | 63 | 1000.1 |
| 20260505211732 | 84 | 165 | 0.0 | 3.0 | 0.00 | 0.00 | 0.00 | 63 | 999.7 |
| 20260505211229 | 84 | 267 | 0.0 | 0.0 | 0.00 | 0.00 | 0.00 | 63 | 999.7 |
| 20260505210726 | 84 | 180 | 1.0 | 3.0 | 0.00 | 0.00 | 0.00 | 63 | 999.7 |
| 20260505210222 | 85 | 246 | 0.0 | 0.0 | 0.00 | 0.00 | 0.00 | 62 | 1000.1 |
| 20260505205720 | 85 | 213 | 5.0 | 7.0 | 0.00 | 0.00 | 0.00 | 62 | 1000.1 |
| 20260505205218 | 85 | 218 | 0.0 | 0.0 | 0.00 | 0.00 | 0.00 | 63 | 999.7 |
| 20260505204714 | 85 | 223 | 0.0 | 0.0 | 0.00 | 0.00 | 0.00 | 63 | 1000.1 |
| 20260505204212 | 85 | 234 | 0.0 | 0.0 | 0.00 | 0.00 | 0.00 | 63 | 1000.1 |
| 20260505203709 | 85 | 309 | 3.0 | 5.0 | 0.00 | 0.00 | 0.00 | 61 | 1000.1 |
| 20260505203206 | 85 | 173 | 0.0 | 3.0 | 0.00 | 0.00 | 0.00 | 62 | 1000.4 |
| 20260505202702 | 85 | 191 | 1.0 | 5.0 | 0.00 | 0.00 | 0.00 | 62 | 1000.7 |
| 20260505202158 | 85 | 254 | 1.0 | 3.0 | 0.00 | 0.00 | 0.00 | 62 | 1000.4 |
| 20260505201654 | 85 | 226 | 0.0 | 0.0 | 0.00 | 0.00 | 0.00 | 63 | 1000.7 |
| 20260505201153 | 84 | 265 | 1.0 | 5.0 | 0.00 | 0.00 | 0.00 | 61 | 1000.7 |
| 20260505200651 | 84 | 180 | 0.0 | 0.0 | 0.00 | 0.00 | 0.00 | 63 | 1000.7 |
| 20260505200147 | 84 | 228 | 0.0 | 3.0 | 0.00 | 0.00 | 0.00 | 63 | 1000.7 |
| 20260505195643 | 84 | 251 | 0.0 | 0.0 | 0.00 | 0.00 | 0.00 | 62 | 1000.7 |
| 20260505195140 | 84 | 176 | 1.0 | 3.0 | 0.00 | 0.00 | 0.00 | 64 | 1000.7 |
| 20260505194638 | 84 | 216 | 0.0 | 0.0 | 0.00 | 0.00 | 0.00 | 64 | 1000.7 |
| 20260505194133 | 84 | 206 | 1.0 | 3.0 | 0.00 | 0.00 | 0.00 | 64 | 1000.7 |
| 20260505193630 | 84 | 169 | 0.0 | 3.0 | 0.00 | 0.00 | 0.00 | 64 | 1001.1 |
| 20260505193127 | 83 | 236 | 0.0 | 0.0 | 0.00 | 0.00 | 0.00 | 64 | 1001.1 |
| 20260505192626 | 83 | 203 | 0.0 | 0.0 | 0.00 | 0.00 | 0.00 | 64 | 1001.1 |
| 20260505192123 | 83 | 150 | 1.0 | 3.0 | 0.00 | 0.00 | 0.00 | 64 | 1001.1 |
| 20260505191622 | 83 | 219 | 3.0 | 5.0 | 0.00 | 0.00 | 0.00 | 64 | 1001.1 |
| 20260505191119 | 82 | 195 | 0.0 | 0.0 | 0.00 | 0.00 | 0.00 | 64 | 1001.1 |
| 20260505190614 | 82 | 230 | 0.0 | 0.0 | 0.00 | 0.00 | 0.00 | 65 | 1001.4 |
| 20260505190109 | 81 | 223 | 0.0 | 0.0 | 0.00 | 0.00 | 0.00 | 65 | 1000.7 |
| 20260505185607 | 81 | 180 | 1.0 | 3.0 | 0.00 | 0.00 | 0.00 | 66 | 1001.1 |
| 20260505185103 | 80 | 174 | 0.0 | 3.0 | 0.00 | 0.00 | 0.00 | 67 | 1001.4 |
| 20260505184559 | 80 | 268 | 0.0 | 0.0 | 0.00 | 0.00 | 0.00 | 68 | 1001.4 |
| 20260505184056 | 80 | 211 | 1.0 | 3.0 | 0.00 | 0.00 | 0.00 | 67 | 1001.4 |
| 20260505183553 | 79 | 247 | 0.0 | 0.0 | 0.00 | 0.00 | 0.00 | 68 | 1001.4 |
| 20260505183051 | 78 | 236 | 0.0 | 0.0 | 0.00 | 0.00 | 0.00 | 69 | 1001.8 |
| 20260505182547 | 78 | 173 | 0.0 | 3.0 | 0.00 | 0.00 | 0.00 | 70 | 1001.8 |
| 20260505182044 | 78 | 237 | 0.0 | 0.0 | 0.00 | 0.00 | 0.00 | 69 | 1001.8 |
| 20260505181540 | 78 | 176 | 0.0 | 0.0 | 0.00 | 0.00 | 0.00 | 70 | 1001.8 |
| 20260505181038 | 77 | 213 | 0.0 | 0.0 | 0.00 | 0.00 | 0.00 | 70 | 1001.8 |
| 20260505180533 | 77 | 312 | 0.0 | 0.0 | 0.00 | 0.00 | 0.00 | 70 | 1001.8 |
| 20260505180032 | 77 | 222 | 0.0 | 0.0 | 0.00 | 0.00 | 0.00 | 71 | 1001.8 |
| 20260505175531 | 76 | 244 | 2.0 | 5.0 | 0.00 | 0.00 | 0.00 | 71 | 1001.8 |
| 20260505175029 | 76 | 229 | 0.0 | 0.0 | 0.00 | 0.00 | 0.00 | 71 | 1002.1 |
| 20260505174526 | 76 | 229 | 0.0 | 0.0 | 0.00 | 0.00 | 0.00 | 71 | 1002.5 |
| 20260505174022 | 75 | 218 | 0.0 | 0.0 | 0.00 | 0.00 | 0.00 | 71 | 1002.1 |
| 20260505173519 | 75 | 106 | 0.0 | 3.0 | 0.00 | 0.00 | 0.00 | 71 | 1002.1 |
| 20260505173016 | 75 | 204 | 0.0 | 0.0 | 0.00 | 0.00 | 0.00 | 71 | 1002.1 |
| 20260505172514 | 75 | 254 | 0.0 | 0.0 | 0.00 | 0.00 | 0.00 | 71 | 1002.5 |
| 20260505172009 | 75 | 194 | 0.0 | 0.0 | 0.00 | 0.00 | 0.00 | 71 | 1002.5 |
| 20260505171504 | 75 | 235 | 0.0 | 0.0 | 0.00 | 0.00 | 0.00 | 71 | 1002.5 |
| 20260505171002 | 74 | 252 | 0.0 | 0.0 | 0.00 | 0.00 | 0.00 | 71 | 1002.5 |
| 20260505170458 | 74 | 153 | 1.0 | 3.0 | 0.00 | 0.00 | 0.00 | 71 | 1002.9 |
| 20260505165954 | 74 | 232 | 0.0 | 0.0 | 0.00 | 0.00 | 0.00 | 71 | 1002.5 |
| 20260505165450 | 74 | 211 | 0.0 | 0.0 | 0.00 | 0.00 | 0.00 | 72 | 1002.5 |